sat.trackr.live / text

‹ back to catalog

STARLINK-35577

NORAD 66538 · 2025-265Y

PAYLOAD ACTIVE UNKNOWN

§ Identity

Operator
Country
US
Launch date
2025-11-19
Launch site
AFETR
Launch vehicle
Mass (kg)
RCS (m²)

Purposes: comms

External: N2YO · Heavens-Above · Gunter

§ Orbital elements

Epoch: 2026-05-25T04:35:16.584288Z

Period
94.27 min
Inclination
42.9984°
Eccentricity
0.0001134
Mean motion
15.27587804 rev/d
Perigee alt
482.2 km
Apogee alt
483.8 km
Semi-major
6,861.2 km
B*
4.1711e-4
RAAN
205.8634°
Arg perigee
274.5904°
Mean anomaly
85.4818°
Rev number
2,881

§ Raw data

STARLINK-355771 66538U 25265Y   26145.19116417  .00011236  00000+0  41711-3 0  99952 66538  42.9984 205.8634 0001134 274.5904  85.4818 15.27587804 28814

JSON: /api/v1/satellites/66538 · /tle

For live sub-satellite position, see the globe view (requires WebGL).

§ Visibility from observer

Set your observer location to see the next 7 days of passes ≥ 10°. The values pass through the URL so the page stays shareable.

No JS? Fill the form by hand. The geolocation button needs JavaScript.